パンスターズ彗星

C/2013 X1 ( PanSTARRS )

English version
Home page
Updated on January 17, 2017

---------------------------------------------------------------------

・ プロフィール

発見日 2013年12月4日
発見光度 20.2等
発見者 Pan-STARRS 1 telescope (Haleakala)

・ 写真集

・ 軌道要素

Epoch 2016 Apr. 2.0 TT = JDT 2457480.5
T 2016 Apr. 20.72559 TT                                 MPCW
q   1.3142771            (2000.0)            P               Q
z  -0.0007544      Peri.  164.45766     +0.82526326     -0.52102639
                   Node   130.95579     -0.54401900     -0.62985957
e   1.0009915      Incl.  163.23174     -0.15160434     -0.57602814
From 2898 observations 2014 Jan. 28-2016 Oct. 5, mean residual 0".6.
     Nongravitational parameters A1 = +1.86, A2 = +0.3432.

・ 星図

・ 光度変化

        m1 = 5.5 + 5 logΔ + 10.0 log r  [    ,-290]  (              〜2015年 7月 5日)
        m1 = 4.0 + 5 logΔ + 12.5 log r  [-290, -66]  (2015年 7月 5日〜2016年 2月14日)
        m1 = 5.6 + 5 logΔ +  5.0 log r  [ -66,   0]  (2016年 2月14日〜2016年 4月20日)
        m1 = 5.0 + 5 logΔ + 10.0 log r  [   0,  60]  (2016年 4月20日〜2016年 6月19日)
        m1 = 3.0 + 5 logΔ + 20.0 log r  [  60,    ]  (2016年 6月19日〜              )

---------------------------------------------------------------------

軌道要素はM.P.E.C. 2016-U66に掲載されたものです。
星図はステラナビゲータ Ver.8 (アストロアーツ) で作成したものです。
光度グラフはComet for Windowsで作成したものです。

---------------------------------------------------------------------

Copyright(C) Seiichi Yoshida (comet@aerith.net). All rights reserved.